Wind_Speed
18 19 21 23 24 25 26 26 26 24 23 22 24 25 26 26 27 28 29 31 32 34 35 36 37 38 38 39 40 41 41 42 42 42 42 43 43 42 42 42 41 40 40 39
18 20 21 22 23 24 25 25 25 25 23 22 24 26 27 27 27 28 29 30 31 32 33 35 36 36 37 38 38 39 40 40 40 40 40 40 41 41 40 40 40 39 38 37
19 20 21 22 21 23 23 23 24 24 23 24 26 27 27 28 28 29 29 30 30 30 31 32 33 35 36 36 37 37 38 38 39 39 39 39 39 39 39 38 38 37 37 36
20 21 22 20 21 22 23 23 24 24 24 25 26 26 27 27 27 27 28 28 28 29 30 31 31 32 33 34 34 35 36 36 37 37 37 37 37 37 37 36 36 36 36 35
21 22 21 20 21 21 22 22 23 24 24 25 26 26 26 26 26 27 27 27 27 27 28 29 30 31 31 32 33 33 33 33 34 34 34 34 34 34 34 34 34 34 34 33
22 22 21 20 21 21 22 22 23 24 24 24 24 24 24 26 27 27 27 27 27 27 27 27 28 29 29 30 30 31 31 31 32 32 32 32 32 32 32 32 31 31 31 31
22 22 21 20 21 21 21 22 22 22 23 23 23 23 24 25 25 25 25 25 25 25 26 26 26 26 27 27 28 28 28 29 29 30 30 30 30 30 30 29 29 29 29 29
21 21 20 20 20 20 20 20 20 20 21 21 21 22 22 22 23 24 24 25 24 24 25 25 25 25 26 26 26 27 27 28 28 28 28 28 28 28 28 28 28 28 28 28
20 20 20 20 20 20 19 19 19 19 19 20 20 21 21 22 23 23 23 24 24 24 24 24 25 25 25 26 26 26 26 27 27 26 26 26 26 26 27 27 27 27 27 27
19 19 20 20 19 20 19 19 19 19 19 19 19 20 21 21 22 22 22 23 23 24 24 24 23 24 24 25 25 25 25 25 25 25 25 25 26 26 26 26 26 27 27 27
19 19 20 20 20 20 20 20 19 19 20 20 20 20 20 21 21 22 22 22 23 23 23 23 23 23 23 24 24 24 25 25 25 25 25 25 25 25 26 26 26 27 27 27
21 20 20 20 20 20 20 20 20 20 20 20 20 20 20 21 21 22 22 23 23 24 24 24 24 24 24 24 24 25 25 25 25 25 25 25 25 26 26 26 27 27 27 27
23 22 21 20 20 20 20 20 20 20 20 20 21 21 21 22 22 23 23 24 24 24 25 25 25 25 25 25 25 25 25 25 25 25 26 26 26 27 27 27 27 27 27 27
24 23 23 22 21 21 21 21 21 21 21 22 22 22 22 22 23 24 24 24 24 24 25 26 26 26 26 26 26 26 26 26 26 26 26 26 27 27 27 28 28 28 28 29
24 24 23 23 22 22 22 21 21 22 22 22 23 23 23 23 24 24 24 24 25 25 26 26 26 26 26 26 27 26 26 27 27 27 27 27 27 28 28 29 29 29 30 30
24 24 24 24 24 23 23 23 22 22 23 23 23 24 24 25 25 25 25 25 26 26 27 27 27 27 27 27 27 28 28 28 28 28 28 28 29 29 29 30 30 31 31 32
23 23 24 24 24 24 24 24 24 23 23 23 24 24 24 25 25 26 26 26 27 27 27 27 28 28 28 28 28 29 29 29 29 29 29 29 30 30 31 31 31 31 32 33
22 23 23 23 23 24 24 24 24 24 24 24 24 24 25 25 25 26 26 27 27 28 28 28 29 29 29 30 30 30 30 30 31 31 31 31 31 32 32 32 33 33 34 34
21 22 22 22 22 23 24 24 24 24 24 24 24 24 25 25 26 26 26 26 27 27 28 28 29 29 30 31 31 31 31 31 32 32 32 33 33 33 34 35 35 35 36 36
20 21 21 21 21 22 22 23 23 23 23 23 23 23 24 25 25 25 26 26 27 27 28 28 28 29 30 30 31 31 32 32 32 33 33 34 34 35 35 36 36 37 37 38
19 20 21 21 21 21 21 22 22 23 23 23 24 24 24 24 24 25 25 26 27 27 28 28 28 29 29 30 30 30 31 32 33 33 33 34 35 35 36 37 37 37 38 38
20 21 22 22 22 22 22 22 22 22 23 23 23 24 24 24 24 24 25 25 26 26 26 27 27 28 29 29 29 29 30 30 31 32 33 34 35 35 36 37 37 38 38 39
20 21 21 22 22 22 22 22 22 22 23 23 23 24 24 24 24 25 25 25 25 25 26 26 26 27 28 28 29 29 30 30 31 31 32 33 34 34 35 36 36 37 37 38
21 21 21 21 21 21 21 21 22 22 22 23 23 24 24 25 25 25 25 25 25 26 26 26 26 27 27 28 28 29 30 30 31 31 32 33 33 34 35 36 36 37 37 38
21 21 20 21 21 21 21 22 23 23 23 23 23 24 24 25 25 25 26 26 26 26 27 27 27 27 27 28 29 30 30 31 32 32 32 33 33 34 34 35 35 36 37 38
22 22 22 22 22 22 22 23 23 24 24 25 25 25 25 26 26 26 26 26 27 27 27 27 28 28 28 28 29 30 30 31 32 33 33 33 34 35 35 36 36 37 38 38
23 23 24 24 24 24 24 24 24 25 26 26 26 27 27 27 27 28 28 27 27 28 28 28 28 29 29 29 30 30 31 31 32 33 34 34 35 36 36 37 37 38 38 38
Wind_Direction
228 229 225 226 228 228 231 234 238 238 238 235 237 239 241 242 243 243 243 243 244 244 245 246 247 248 250 251 252 252 253 253 254 255 256 257 258 260 261 263 265 267 269 272
233 234 232 230 230 231 234 236 239 240 239 238 240 242 244 244 244 245 244 245 245 245 246 247 248 249 250 251 252 253 253 254 255 256 257 257 258 259 261 263 265 267 269 272
239 238 237 235 234 236 238 239 242 243 242 242 243 245 246 246 247 248 247 247 247 246 247 248 249 249 250 251 252 254 254 254 255 256 257 257 258 260 260 262 264 266 269 271
242 241 242 242 240 241 243 243 244 245 244 246 246 246 247 247 249 250 250 249 249 249 249 249 250 251 251 251 252 253 254 254 255 256 256 257 258 259 260 262 263 266 268 271
245 244 244 244 243 243 244 243 245 246 246 247 248 247 247 247 247 248 249 249 249 250 250 250 251 252 252 252 252 252 252 253 254 255 256 256 257 258 259 261 263 265 267 269
246 247 246 244 245 245 246 245 245 247 247 248 248 247 245 245 246 248 249 249 249 250 250 251 252 252 252 252 252 252 252 253 253 254 255 255 256 257 258 260 261 263 265 267
246 248 246 246 246 245 246 246 245 246 247 248 248 246 245 247 247 248 248 248 248 249 250 250 251 252 252 252 253 253 253 253 253 253 254 254 254 256 257 258 260 262 264 267
248 248 247 245 245 244 245 245 246 247 247 248 248 247 248 248 248 247 247 247 248 249 250 251 251 252 253 254 254 254 254 253 253 253 253 253 253 255 256 257 259 262 264 267
246 248 248 246 244 244 244 245 246 246 246 247 248 248 248 248 247 247 247 247 247 249 250 252 253 254 255 256 256 255 255 253 253 252 252 252 252 254 256 257 260 262 265 267
244 244 245 244 244 244 245 245 246 245 244 246 246 248 248 248 246 246 246 247 248 250 251 254 255 256 256 256 256 255 254 253 252 252 252 253 254 256 257 259 260 263 266 268
243 243 244 243 243 243 244 244 244 244 244 246 246 248 248 246 246 247 248 250 251 252 253 255 257 257 257 257 256 256 254 253 253 254 254 254 255 257 258 260 262 265 267 269
238 240 242 243 243 244 244 245 246 246 246 246 248 249 249 249 249 250 251 253 253 254 254 256 256 257 257 258 258 256 255 254 255 255 255 255 257 259 260 262 264 266 267 270
237 237 239 241 243 245 246 247 248 248 248 248 249 250 251 252 252 253 254 255 255 255 256 257 258 258 258 259 259 258 257 256 255 256 257 257 259 260 261 263 265 266 268 271
238 237 238 240 243 246 248 248 249 250 250 250 251 252 254 255 255 255 256 257 257 258 258 259 259 259 259 260 260 259 258 258 257 258 259 259 260 261 262 263 265 268 270 272
239 240 240 241 243 246 249 251 251 252 253 253 253 254 255 256 257 257 257 258 259 260 260 261 261 261 260 260 260 260 259 259 259 259 259 260 261 263 264 265 267 269 270 272
240 242 243 244 244 247 250 252 253 255 256 256 256 257 257 258 258 259 260 260 260 261 261 261 261 261 261 260 260 260 260 259 259 260 260 260 262 264 265 267 268 270 271 273
242 244 246 246 246 248 251 253 254 257 258 258 258 258 258 258 259 261 262 262 262 262 262 262 261 261 261 261 261 260 261 261 261 261 261 262 264 265 266 268 270 271 272 274
245 246 247 247 247 249 251 254 256 257 258 259 259 258 259 260 262 263 264 264 263 262 263 263 262 262 261 261 261 261 262 262 262 262 262 264 265 266 267 268 270 272 273 275
247 247 248 249 250 251 253 255 256 257 258 259 259 259 260 261 263 264 265 266 265 265 264 264 264 263 262 262 262 263 263 263 263 263 263 264 265 267 269 270 271 272 274 276
250 250 251 251 252 253 254 255 256 257 257 258 259 260 262 263 264 265 266 267 267 267 267 267 266 265 264 264 265 265 265 264 264 264 265 266 267 268 269 270 272 273 275 276
254 254 253 252 254 256 256 256 257 257 258 258 259 262 264 265 267 268 268 268 268 268 268 268 267 266 266 267 267 267 266 266 266 266 266 267 268 269 270 271 272 273 274 276
257 256 254 254 255 256 257 257 258 258 258 259 260 262 264 266 268 268 269 269 269 269 270 269 268 268 267 267 268 268 269 268 268 268 268 269 270 270 271 271 272 273 274 276
260 258 257 256 256 256 257 258 259 259 259 260 261 263 265 266 268 268 269 270 270 270 271 271 271 270 269 268 269 269 270 270 270 270 271 271 272 272 272 273 273 274 276 277
262 261 259 258 257 257 257 258 259 259 261 263 265 265 267 268 268 269 270 271 272 273 274 273 272 271 271 270 271 271 272 272 273 273 273 273 273 274 274 275 275 276 277 279
260 259 259 258 258 259 259 259 260 261 262 265 267 268 269 270 271 272 272 272 273 274 274 275 274 273 272 272 272 273 273 274 274 275 275 275 275 276 277 277 277 277 278 280
259 259 258 258 258 259 260 261 262 263 264 266 268 269 271 272 273 274 275 275 275 276 276 276 276 276 275 275 275 275 276 277 277 276 277 277 277 277 278 279 280 280 280 280
261 260 259 260 260 260 263 264 265 266 267 268 269 270 272 273 273 273 274 275 276 277 277 278 279 278 277 276 276 277 278 278 279 278 279 279 279 279 280 280 281 281 281 282
Height
5610 5612 5614 5616 5619 5621 5624 5628 5631 5634 5637 5640 5641 5643 5646 5648 5650 5652 5654 5656 5658 5660 5662 5665 5668 5670 5673 5676 5678 5681 5683 5686 5688 5691 5693 5695 5696 5698 5700 5701 5702 5702 5703 5703
5607 5608 5610 5612 5615 5617 5620 5623 5626 5628 5632 5634 5635 5637 5639 5641 5643 5645 5647 5649 5651 5653 5655 5657 5660 5662 5665 5667 5669 5672 5674 5676 5679 5681 5683 5685 5687 5688 5690 5691 5692 5692 5693 5693
5603 5604 5606 5609 5612 5613 5616 5618 5621 5623 5627 5627 5629 5631 5633 5635 5637 5639 5640 5642 5644 5646 5648 5650 5652 5654 5656 5659 5661 5663 5665 5667 5669 5671 5673 5675 5677 5678 5680 5681 5682 5683 5683 5683
5599 5601 5602 5608 5607 5609 5611 5613 5615 5617 5619 5621 5623 5624 5626 5628 5630 5632 5634 5635 5637 5639 5641 5643 5645 5647 5649 5650 5652 5654 5656 5658 5660 5662 5664 5666 5668 5669 5670 5672 5673 5674 5674 5674
5594 5595 5598 5602 5602 5604 5606 5608 5610 5611 5613 5615 5616 5618 5621 5622 5624 5625 5627 5629 5631 5632 5634 5636 5638 5639 5641 5643 5644 5646 5648 5650 5651 5653 5655 5657 5658 5660 5661 5663 5664 5665 5665 5666
5589 5590 5593 5597 5597 5598 5601 5603 5604 5605 5607 5609 5610 5613 5615 5615 5617 5619 5621 5622 5624 5626 5628 5629 5631 5632 5634 5635 5637 5638 5640 5642 5643 5645 5647 5648 5650 5651 5653 5654 5655 5656 5656 5657
5584 5585 5588 5591 5592 5594 5597 5598 5599 5600 5601 5603 5604 5607 5608 5609 5611 5613 5615 5616 5618 5620 5621 5623 5624 5626 5627 5628 5630 5631 5632 5634 5635 5637 5639 5640 5642 5643 5645 5646 5647 5647 5648 5648
5579 5580 5585 5585 5587 5589 5590 5591 5593 5594 5596 5597 5599 5600 5602 5604 5605 5607 5609 5610 5612 5614 5615 5616 5618 5619 5620 5621 5623 5624 5625 5626 5628 5629 5631 5632 5634 5635 5637 5638 5639 5639 5640 5640
5574 5578 5578 5579 5581 5583 5584 5586 5588 5589 5591 5592 5594 5595 5597 5598 5600 5601 5603 5605 5606 5608 5609 5610 5611 5613 5614 5615 5616 5617 5618 5619 5621 5622 5624 5625 5626 5628 5629 5630 5631 5632 5632 5632
5569 5571 5572 5574 5575 5577 5579 5581 5583 5584 5586 5587 5588 5590 5591 5593 5594 5596 5597 5599 5600 5602 5603 5604 5605 5606 5607 5608 5609 5610 5611 5613 5614 5615 5617 5618 5619 5621 5622 5623 5623 5624 5624 5624
5563 5565 5567 5569 5570 5572 5574 5576 5577 5579 5581 5582 5583 5585 5586 5587 5589 5590 5592 5593 5595 5596 5597 5598 5599 5600 5601 5602 5603 5604 5605 5606 5607 5609 5610 5611 5612 5613 5614 5615 5616 5616 5616 5616
5557 5560 5561 5564 5565 5567 5569 5571 5572 5574 5575 5577 5578 5580 5581 5582 5584 5585 5586 5587 5589 5590 5591 5592 5593 5593 5594 5595 5596 5597 5598 5599 5600 5602 5603 5604 5605 5606 5607 5607 5608 5608 5608 5608
5551 5553 5556 5558 5560 5562 5563 5565 5567 5568 5570 5571 5573 5574 5575 5577 5578 5579 5580 5581 5582 5583 5584 5585 5586 5587 5588 5589 5590 5591 5591 5592 5593 5595 5596 5596 5597 5598 5599 5600 5600 5600 5600 5600
5544 5547 5550 5552 5555 5556 5558 5560 5561 5563 5564 5566 5567 5568 5569 5570 5572 5573 5574 5575 5576 5576 5577 5578 5579 5580 5581 5582 5583 5583 5584 5585 5586 5587 5588 5589 5590 5590 5591 5591 5592 5592 5592 5591
5538 5541 5544 5547 5549 5551 5552 5554 5556 5557 5558 5560 5561 5562 5563 5564 5565 5566 5567 5568 5569 5569 5570 5571 5572 5572 5573 5574 5575 5576 5577 5578 5578 5579 5580 5581 5582 5582 5583 5583 5583 5583 5583 5582
5533 5535 5538 5540 5543 5545 5546 5548 5549 5551 5552 5553 5554 5555 5556 5557 5558 5559 5560 5561 5561 5562 5563 5563 5564 5565 5566 5566 5567 5568 5569 5570 5570 5571 5572 5573 5573 5574 5574 5574 5574 5574 5574 5573
5527 5530 5532 5534 5536 5538 5540 5541 5543 5544 5545 5546 5547 5548 5549 5550 5551 5551 5552 5553 5553 5554 5555 5555 5556 5556 5557 5558 5559 5559 5560 5561 5562 5562 5563 5564 5564 5565 5565 5565 5565 5564 5564 5563
5522 5524 5526 5528 5530 5531 5533 5535 5536 5537 5538 5539 5540 5541 5541 5542 5543 5544 5544 5545 5545 5546 5546 5547 5547 5548 5548 5549 5550 5551 5551 5552 5553 5553 5554 5554 5555 5555 5555 5555 5555 5554 5554 5553
5516 5518 5520 5521 5523 5525 5526 5528 5529 5530 5531 5532 5532 5533 5534 5535 5535 5536 5536 5537 5537 5537 5538 5538 5539 5539 5539 5540 5540 5541 5542 5542 5543 5543 5544 5544 5544 5545 5545 5544 5544 5544 5543 5542
5511 5512 5514 5515 5517 5518 5519 5521 5522 5523 5524 5525 5525 5526 5527 5527 5528 5528 5528 5529 5529 5529 5529 5529 5529 5530 5530 5530 5531 5531 5532 5532 5533 5533 5533 5534 5534 5534 5534 5533 5533 5532 5532 5530
5506 5507 5508 5510 5511 5512 5513 5514 5515 5516 5517 5518 5518 5519 5519 5520 5520 5520 5520 5520 5520 5520 5520 5520 5520 5521 5521 5521 5521 5521 5521 5522 5522 5522 5523 5523 5523 5523 5522 5522 5521 5521 5520 5519
5500 5501 5502 5503 5504 5506 5506 5507 5508 5509 5510 5510 5511 5511 5512 5512 5512 5512 5512 5512 5512 5512 5512 5511 5511 5511 5512 5512 5512 5512 5512 5512 5512 5512 5512 5512 5511 5511 5511 5510 5509 5509 5508 5507
5494 5495 5496 5496 5497 5498 5499 5500 5501 5502 5503 5503 5504 5504 5504 5504 5504 5504 5504 5504 5504 5504 5503 5503 5503 5502 5502 5502 5502 5502 5502 5502 5502 5501 5501 5501 5500 5500 5499 5498 5498 5497 5496 5495
5487 5488 5489 5490 5490 5491 5492 5493 5494 5495 5495 5496 5496 5496 5497 5497 5497 5496 5496 5496 5496 5496 5495 5495 5494 5494 5493 5493 5493 5493 5492 5492 5492 5491 5491 5490 5489 5489 5488 5487 5486 5485 5484 5482
5481 5481 5482 5483 5484 5485 5485 5486 5487 5488 5488 5488 5489 5489 5489 5489 5489 5488 5488 5488 5487 5487 5487 5486 5485 5485 5485 5484 5484 5483 5483 5482 5481 5481 5480 5479 5478 5477 5476 5475 5474 5473 5472 5470
5474 5474 5475 5476 5477 5478 5478 5479 5480 5480 5480 5481 5481 5481 5481 5481 5480 5480 5480 5479 5479 5478 5478 5477 5477 5476 5475 5475 5474 5473 5473 5472 5471 5470 5469 5468 5467 5466 5465 5464 5462 5461 5459 5457
5467 5467 5468 5469 5470 5470 5471 5471 5472 5472 5472 5473 5473 5473 5472 5472 5472 5472 5471 5471 5470 5470 5469 5468 5467 5467 5466 5465 5464 5463 5462 5461 5460 5459 5458 5457 5456 5454 5453 5451 5450 5448 5446 5445